This is the latest recevied weather packets stored in our database for station/object K5MGY. If no packets are shown the sender has not sent any weather packets the latest 10 day(s).
| Time | Temp. | Humidity | Pressure | Rain* | Wind** | Luminosity | Snow |
|---|---|---|---|---|---|---|---|
| 1777839296 | 28.89° C | 32% | 1042.4 hPa | 0 mm | - | 680 W/m² | - |
| 1777835654 | 28.89° C | 33% | 1043.2 hPa | 0 mm | - | 744 W/m² | - |
| 1777835350 | 28.33° C | 34% | 1043.4 hPa | 0 mm | - | 749 W/m² | - |
| 1777835048 | 28.33° C | 34% | 1043.4 hPa | 0 mm | - | 748 W/m² | - |
| 1777834744 | 28.33° C | 32% | 1043.5 hPa | 0 mm | - | 753 W/m² | - |
| 1777833230 | 28.89° C | 35% | 1043.7 hPa | 0 mm | - | 760 W/m² | - |
| 1777832927 | 28.33° C | 34% | 1043.8 hPa | 0 mm | - | 759 W/m² | - |
| 1777832626 | 28.33° C | 37% | 1044 hPa | 0 mm | - | 767 W/m² | - |
| 1777830809 | 27.78° C | 36% | 1044.4 hPa | 0 mm | - | 753 W/m² | - |
| 1777830509 | 27.22° C | 39% | 1044.7 hPa | 0 mm | - | 744 W/m² | - |
| 1777829599 | 27.22° C | 38% | 1044.7 hPa | 0 mm | - | 740 W/m² | - |
| 1777829296 | 27.22° C | 40% | 1044.9 hPa | 0 mm | - | 733 W/m² | - |
| 1777828084 | 26.67° C | 41% | 1045.2 hPa | 0 mm | - | 706 W/m² | - |
| 1777827175 | 26.67° C | 42% | 1045.8 hPa | 0 mm | - | 693 W/m² | - |
| 1777824749 | 25.56° C | 43% | 1046 hPa | 0 mm | - | 616 W/m² | - |
| 1777824446 | 25° C | 45% | 1046.1 hPa | 0 mm | - | 604 W/m² | - |
| 1777824142 | 24.44° C | 46% | 1046 hPa | 0 mm | - | 593 W/m² | - |
| 1777823839 | 24.44° C | 45% | 1046.1 hPa | 0 mm | - | 583 W/m² | - |
| 1777823537 | 24.44° C | 45% | 1046.1 hPa | 0 mm | - | 572 W/m² | - |
| 1777822629 | 23.89° C | 45% | 1046 hPa | 0 mm | - | 534 W/m² | - |
| 1777822024 | 23.33° C | 46% | 1046 hPa | 0 mm | - | 505 W/m² | - |
| 1777821722 | 22.78° C | 47% | 1045.9 hPa | 0 mm | - | 492 W/m² | - |
| 1777820509 | 22.22° C | 49% | 1046 hPa | 0 mm | - | 115 W/m² | - |
| 1777820206 | 21.67° C | 51% | 1046.1 hPa | 0 mm | - | 64 W/m² | - |
| 1777819903 | 21.67° C | 51% | 1046 hPa | 0 mm | - | 59 W/m² | - |
* Rain latest hour (hover to see other rain measurements)
** Current wind speed in m/s (hover to see current wind gust speed)